TimeCST,TemperatureF,Dew PointF,Humidity,Sea Level PressureIn,VisibilityMPH,Wind Direction,Wind SpeedMPH,Gust SpeedMPH,PrecipitationIn,Events,Conditions,WindDirDegrees,DateUTC
12:15 AM,42.8,30.2,61,30.19,10.0,South,5.8,-,N/A,,Clear,190,2012-11-07 06:15:00
12:35 AM,42.8,32.0,66,30.19,10.0,South,3.5,-,N/A,,Clear,180,2012-11-07 06:35:00
12:55 AM,42.8,32.0,66,30.19,10.0,SSE,4.6,-,N/A,,Clear,160,2012-11-07 06:55:00
1:15 AM,42.8,30.2,61,30.18,10.0,SSW,5.8,-,N/A,,Clear,200,2012-11-07 07:15:00
1:35 AM,41.0,32.0,70,30.18,10.0,SSW,9.2,-,N/A,,Clear,210,2012-11-07 07:35:00
1:55 AM,41.0,32.0,70,30.18,10.0,SSW,9.2,-,N/A,,Clear,210,2012-11-07 07:55:00
2:15 AM,41.0,32.0,70,30.18,10.0,SSW,9.2,-,N/A,,Clear,210,2012-11-07 08:15:00
2:55 AM,41.0,32.0,70,30.18,10.0,SW,5.8,-,N/A,,Clear,220,2012-11-07 08:55:00
3:15 AM,41.0,30.2,65,30.18,10.0,SW,5.8,-,N/A,,Clear,230,2012-11-07 09:15:00
3:35 AM,39.2,30.2,70,30.17,10.0,SW,5.8,-,N/A,,Clear,220,2012-11-07 09:35:00
3:55 AM,39.2,28.4,65,30.17,10.0,SW,6.9,-,N/A,,Clear,220,2012-11-07 09:55:00
4:15 AM,37.4,30.2,75,30.16,10.0,SW,5.8,-,N/A,,Clear,220,2012-11-07 10:15:00
4:35 AM,37.4,28.4,70,30.16,10.0,SSW,5.8,-,N/A,,Clear,210,2012-11-07 10:35:00
4:55 AM,37.4,30.2,75,30.16,10.0,SW,3.5,-,N/A,,Clear,220,2012-11-07 10:55:00
5:15 AM,41.0,32.0,70,30.16,10.0,SW,4.6,-,N/A,,Clear,220,2012-11-07 11:15:00
5:35 AM,41.0,32.0,70,30.16,10.0,SW,4.6,-,N/A,,Clear,220,2012-11-07 11:35:00
5:55 AM,41.0,32.0,70,30.15,10.0,SSW,3.5,-,N/A,,Clear,210,2012-11-07 11:55:00
6:15 AM,41.0,32.0,70,30.15,10.0,SW,4.6,-,N/A,,Clear,220,2012-11-07 12:15:00
6:35 AM,39.2,32.0,75,30.15,10.0,South,3.5,-,N/A,,Clear,180,2012-11-07 12:35:00
6:55 AM,39.2,32.0,75,30.15,10.0,South,3.5,-,N/A,,Clear,170,2012-11-07 12:55:00
7:15 AM,39.2,32.0,75,30.16,10.0,South,3.5,-,N/A,,Clear,170,2012-11-07 13:15:00
7:35 AM,37.4,30.2,75,30.16,10.0,South,4.6,-,N/A,,Clear,170,2012-11-07 13:35:00
7:55 AM,41.0,32.0,70,30.17,10.0,South,4.6,-,N/A,,Clear,170,2012-11-07 13:55:00
8:15 AM,44.6,33.8,66,30.17,10.0,South,3.5,-,N/A,,Clear,170,2012-11-07 14:15:00
8:35 AM,50.0,35.6,58,30.17,10.0,South,5.8,-,N/A,,Clear,170,2012-11-07 14:35:00
8:55 AM,53.6,35.6,51,30.17,10.0,South,6.9,-,N/A,,Clear,170,2012-11-07 14:55:00
9:15 AM,55.4,35.6,47,30.16,10.0,South,10.4,-,N/A,,Clear,170,2012-11-07 15:15:00
9:35 AM,59.0,35.6,42,30.15,10.0,South,11.5,16.1,N/A,,Clear,180,2012-11-07 15:35:00
9:55 AM,60.8,35.6,39,30.15,10.0,South,12.7,-,N/A,,Clear,190,2012-11-07 15:55:00
10:15 AM,62.6,33.8,34,30.14,10.0,South,18.4,-,N/A,,Clear,180,2012-11-07 16:15:00
10:35 AM,64.4,33.8,32,30.13,10.0,South,16.1,19.6,N/A,,Clear,170,2012-11-07 16:35:00
10:55 AM,66.2,33.8,30,30.12,10.0,South,15.0,-,N/A,,Clear,180,2012-11-07 16:55:00
11:15 AM,68.0,33.8,28,30.11,10.0,South,16.1,21.9,N/A,,Clear,190,2012-11-07 17:15:00
11:35 AM,69.8,33.8,27,30.10,10.0,South,16.1,23.0,N/A,,Clear,190,2012-11-07 17:35:00
11:55 AM,71.6,35.6,27,30.09,10.0,South,16.1,23.0,N/A,,Clear,190,2012-11-07 17:55:00
12:15 PM,73.4,35.6,25,30.07,10.0,South,17.3,23.0,N/A,,Clear,180,2012-11-07 18:15:00
12:35 PM,73.4,35.6,25,30.05,10.0,South,17.3,25.3,N/A,,Clear,190,2012-11-07 18:35:00
12:55 PM,77.0,35.6,22,30.04,10.0,SSW,18.4,25.3,N/A,,Clear,210,2012-11-07 18:55:00
1:15 PM,77.0,35.6,22,30.03,10.0,SSW,20.7,-,N/A,,Clear,210,2012-11-07 19:15:00
1:35 PM,77.0,33.8,21,30.01,10.0,SSW,18.4,-,N/A,,Clear,200,2012-11-07 19:35:00
1:55 PM,78.8,33.8,20,30.00,10.0,SW,17.3,-,N/A,,Clear,220,2012-11-07 19:55:00
2:15 PM,78.8,33.8,20,29.99,10.0,SSW,18.4,23.0,N/A,,Clear,200,2012-11-07 20:15:00
2:35 PM,78.8,32.0,18,29.98,10.0,SSW,13.8,21.9,N/A,,Clear,200,2012-11-07 20:35:00
2:55 PM,80.6,33.8,18,29.97,10.0,South,15.0,-,N/A,,Clear,190,2012-11-07 20:55:00
3:15 PM,80.6,32.0,17,29.97,10.0,South,12.7,19.6,N/A,,Clear,190,2012-11-07 21:15:00
3:35 PM,80.6,32.0,17,29.96,10.0,SSW,13.8,20.7,N/A,,Clear,200,2012-11-07 21:35:00
3:55 PM,80.6,32.0,17,29.96,10.0,SSW,12.7,21.9,N/A,,Clear,200,2012-11-07 21:55:00
4:15 PM,78.8,35.6,21,29.96,10.0,South,20.7,25.3,N/A,,Clear,170,2012-11-07 22:15:00
4:35 PM,77.0,35.6,22,29.96,10.0,South,19.6,25.3,N/A,,Clear,180,2012-11-07 22:35:00
4:55 PM,75.2,35.6,24,29.96,10.0,South,19.6,25.3,N/A,,Clear,170,2012-11-07 22:55:00
5:15 PM,73.4,35.6,25,29.96,10.0,South,15.0,-,N/A,,Clear,170,2012-11-07 23:15:00
5:35 PM,69.8,35.6,28,29.95,10.0,SSE,16.1,-,N/A,,Clear,160,2012-11-07 23:35:00
5:55 PM,68.0,35.6,30,29.96,10.0,SSE,12.7,-,N/A,,Clear,160,2012-11-07 23:55:00
6:15 PM,66.2,35.6,32,29.96,10.0,SSE,13.8,-,N/A,,Clear,150,2012-11-08 00:15:00
6:35 PM,64.4,35.6,34,29.96,10.0,SSE,13.8,-,N/A,,Clear,150,2012-11-08 00:35:00
6:55 PM,62.6,35.6,37,29.96,10.0,SSE,12.7,-,N/A,,Clear,150,2012-11-08 00:55:00
7:15 PM,60.8,35.6,39,29.96,10.0,SSE,13.8,-,N/A,,Clear,150,2012-11-08 01:15:00
7:35 PM,60.8,35.6,39,29.96,10.0,SSE,15.0,-,N/A,,Clear,150,2012-11-08 01:35:00
8:15 PM,60.8,35.6,39,29.96,10.0,SSE,16.1,-,N/A,,Clear,160,2012-11-08 02:15:00
8:35 PM,59.0,35.6,42,29.96,10.0,SSE,16.1,-,N/A,,Clear,160,2012-11-08 02:35:00
8:55 PM,59.0,35.6,42,29.96,10.0,SSE,15.0,-,N/A,,Clear,160,2012-11-08 02:55:00
9:15 PM,59.0,35.6,42,29.96,10.0,SSE,13.8,-,N/A,,Clear,160,2012-11-08 03:15:00
9:35 PM,57.2,35.6,44,29.96,10.0,SSE,13.8,-,N/A,,Clear,160,2012-11-08 03:35:00
9:55 PM,57.2,35.6,44,29.96,10.0,SSE,13.8,-,N/A,,Clear,160,2012-11-08 03:55:00
10:15 PM,57.2,35.6,44,29.96,10.0,SSE,15.0,-,N/A,,Clear,160,2012-11-08 04:15:00
10:35 PM,57.2,35.6,44,29.95,10.0,SSE,15.0,-,N/A,,Clear,160,2012-11-08 04:35:00
10:55 PM,55.4,35.6,47,29.94,10.0,SSE,13.8,-,N/A,,Clear,160,2012-11-08 04:55:00
11:15 PM,55.4,37.4,51,29.93,10.0,SSE,13.8,-,N/A,,Clear,160,2012-11-08 05:15:00
11:35 PM,55.4,35.6,47,29.93,10.0,SSE,12.7,-,N/A,,Clear,160,2012-11-08 05:35:00
11:55 PM,53.6,35.6,51,29.92,10.0,SSE,10.4,-,N/A,,Clear,160,2012-11-08 05:55:00